Location: The Stocker AstroScience Center
(25.7579°N, 80.3725°W)
Time: 13:32:28
(UTC-04:00)

ISS - All Passes

Search period start: 25 May 2015 00:00
Search period end: 04 June 2015 00:00
Orbit: 399 x 404 km, 51.6° (Epoch: 25 May)

Date Brightness Start Highest point End Pass type
(mag) Time Alt. Az. Time Alt. Az. Time Alt. Az.
25 May - 00:56:04 10° W 00:58:08 15° NW 01:00:08 10° N night (unlit)
25 May - 07:30:38 10° NNE 07:31:16 10° NE 07:32:03 10° NE daylight
25 May - 09:04:45 10° NW 09:07:55 47° SW 09:11:03 10° SSE daylight
25 May - 22:27:33 10° SE 22:28:35 11° SE 22:29:46 10° ESE night (unlit)
26 May - 00:01:50 10° WSW 00:04:47 32° NW 00:07:45 10° NNE night (unlit)
26 May - 08:11:31 10° NW 08:14:45 61° NE 08:17:58 10° SE daylight
26 May - 23:08:19 10° SW 23:11:33 85° NW 23:14:47 10° NE night (unlit)
27 May - 07:18:43 10° NNW 07:21:28 25° NE 07:24:15 10° ESE daylight
27 May - 08:55:41 10° W 08:57:45 15° SW 08:59:41 10° SSW daylight
27 May - 22:15:26 10° SSW 22:18:23 34° SE 22:21:22 10° ENE night (unlit)
27 May - 23:53:15 10° WNW 23:54:55 13° NW 23:56:28 10° N night (unlit)
28 May - 06:26:38 10° NNE 06:28:03 12° NE 06:29:35 10° ENE daylight
28 May - 08:01:33 10° WNW 08:04:36 37° SW 08:07:38 10° SSE daylight
28 May - 21:23:30 10° SSE 21:25:14 14° SE 21:27:06 10° E night (unlit)
28 May - 22:58:41 10° WSW 23:01:29 26° NW 23:04:17 10° NNE night (unlit)
29 May - 07:08:09 10° NW 07:11:25 79° NE 07:14:40 10° SE daylight
29 May - 22:04:58 10° SW 22:08:11 67° NW 22:11:24 10° NE night (unlit)
30 May - 06:15:12 10° NNW 06:18:07 30° NE 06:21:03 10° ESE daylight
30 May - 07:52:49 10° W 07:54:20 12° SW 07:55:43 10° SSW daylight
30 May - 21:11:53 10° SSW 21:14:58 43° SE 21:18:03 10° NE visible
30 May - 22:50:32 10° WNW 22:51:34 11° NW 22:52:29 10° NNW visible
31 May - 05:22:49 10° N 05:24:41 15° NE 05:26:39 10° ENE visible
31 May - 06:58:15 10° WNW 07:01:10 29° SW 07:04:02 10° S daylight
31 May - 20:19:36 10° S 20:21:46 17° SE 20:24:03 10° E daylight
31 May - 21:55:27 10° W 21:58:05 22° NW 22:00:40 10° N visible
01 Jun - 06:04:41 10° NW 06:07:57 81° SW 06:11:11 10° SE visible
01 Jun - 21:01:33 10° SW 21:04:42 52° NW 21:07:52 10° NNE visible
02 Jun - 05:11:35 10° NNW 05:14:38 37° NE 05:17:41 10° ESE visible
02 Jun - 20:08:15 10° SSW 20:11:25 55° SE 20:14:35 10° NE daylight
03 Jun - 04:18:58 10° N 04:21:11 17° NE 04:23:28 10° E visible
03 Jun - 05:54:53 10° WNW 05:57:36 24° SW 06:00:15 10° S visible
03 Jun - 19:15:41 10° S 19:18:11 21° SE 19:20:44 10° ENE daylight
03 Jun - 20:52:09 10° W 20:54:32 19° NW 20:56:53 10° N visible
